[[{"header":{"parameterUnit":"m.s-1","parameterCategory":1,"la1":30.2991,"la2":30.254,"lo1":-89.0895,"lo2":-89.0444,"dy":0.0017,"dx":0.0017,"nx":28,"ny":28,"refTime":"2023-11-14T03:00:00:Z","depth":0,"parameterNumber":2,"parameterNumberName":"U-component_of_WINDS"},"data":[0,0,0,0,0,0,0,0,0,0,0,0,0,0,0,0,0,0,0,0,0,0,0,0,0,0,0,0,0,0,0,0,0,0,0,0,0,0,0,0,0,0,0,0,0,0,0,0,0,0,0,0,0,0,0,0,0,0,-6.6986,-6.6988,0,-6.7112,-6.7113,-6.7115,-6.6982,-6.6977,-6.6972,-6.6967,-6.7096,-6.7104,-6.7112,0,0,0,0,0,0,0,0,0,0,0,0,0,-6.6632,-6.6639,-6.6986,-6.6988,-6.6989,-6.7112,-6.7113,-6.7115,-6.6983,-6.6977,-6.6971,-6.6965,-6.7093,-6.7103,-6.7113,0,0,0,0,0,0,0,0,0,0,0,0,0,-6.6775,-6.6641,-6.6986,-6.6938,-6.6935,-6.7111,-6.7114,-6.7116,-6.6985,-6.6977,-6.6969,-6.6962,-6.709,-6.7102,-6.7114,-6.7343,0,0,-6.7152,-6.7157,0,0,0,0,0,0,0,0,-6.6767,-6.6788,-6.6944,-6.6942,-6.6939,-6.7024,-6.7035,-6.7192,-6.6987,-6.6966,-6.6967,-6.6958,-6.7078,-6.7091,-6.7131,-6.7349,-6.7355,-6.7153,-6.716,-6.7165,-6.7169,0,0,0,0,0,0,0,-6.6757,-6.6781,-6.7036,-6.6946,-6.6943,-6.6911,-6.6922,-6.7065,-6.7063,-6.6967,-6.6958,-6.6975,-6.7075,-6.712,-6.7133,-6.7357,-6.7152,-6.7163,-6.7171,-6.7176,-6.7771,-6.7779,0,0,0,0,0,0,-6.6752,-6.6774,-6.7032,-6.704,-6.6832,-6.6923,-6.6936,-6.7004,-6.7062,-6.7063,-6.6981,-6.6968,-6.7103,-6.7119,-6.7137,-6.7411,-6.7165,-6.7177,-6.7184,-6.7763,-6.7773,-6.7782,0,0,0,0,0,0,-6.6745,-6.6777,-6.7027,-6.6904,-6.6934,-6.6937,-6.7015,-6.7011,-6.7055,-6.7072,-6.7071,-6.7027,-6.7097,-6.712,-6.7294,-6.7414,-6.7182,-6.7194,-6.7753,-6.7766,-6.7778,-6.796,0,0,0,0,0,0,-6.6736,-6.6775,-6.6862,-6.6907,-6.6941,-6.7182,-6.7022,-6.7019,-6.7077,-6.7061,-6.7115,-6.7116,-6.7093,-6.7276,-6.7306,-6.7427,-6.7203,-6.7742,-6.7759,-6.7774,-6.7944,-6.7978,-6.8007,0,0,0,0,0,-6.6723,-6.6908,-6.6867,-6.6899,-6.705,-6.7189,-6.7208,-6.7177,-6.7087,-6.7175,-6.7186,-6.7115,-6.7396,-6.7295,-6.7327,-6.7454,-6.7735,-6.7754,-6.7773,-6.7929,-6.7971,-6.8006,0,0,0,0,0,0,-6.6875,-6.6913,-6.6868,-6.7072,-6.7129,-6.7166,-6.7276,-6.7222,-6.7304,-6.7286,-6.7244,-6.7258,-6.7443,-6.7465,-6.7352,-6.7679,-6.755,-6.7577,-6.7658,-6.7698,-6.7729,-6.7721,-6.7213,0,0,0,0,0,-6.6933,-6.7043,-6.7069,-6.7247,-6.7277,-6.7272,-6.7331,-6.7303,-6.7359,-6.7382,-6.7406,-6.7463,-6.7564,-6.7632,-6.7726,-6.7946,-6.7956,-6.8048,-6.808,-6.8106,-6.813,-6.825,-6.8292,-6.7845,-6.7845,-6.7844,0,0,-6.7052,-6.7086,-6.7158,-6.7278,-6.7318,-6.7433,-6.7293,-6.742,-6.7505,-6.7401,-6.7567,-6.7587,-6.7648,-6.7847,-6.7935,-6.7871,-6.8255,-6.813,-6.8151,-6.8161,-6.8274,-6.8316,-6.8354,-6.7858,-6.7855,-6.7853,0,0,-6.7329,-6.7366,-6.7519,-6.7562,-6.7625,-6.762,-6.7658,-6.7704,-6.7713,-6.7879,-6.7804,-6.7905,-6.808,-6.8127,-6.8174,-6.8471,-6.841,-6.8503,-6.8669,-6.8786,-6.8821,-6.8852,-6.896,-6.8999,-6.8526,-6.8527,-6.8527,0,-6.747,-6.7641,-6.7604,-6.7738,-6.7793,-6.7705,-6.7861,-6.7904,-6.7995,-6.8036,-6.7962,-6.8181,-6.8216,-6.8425,-6.8498,-6.8538,-6.858,-6.8497,-6.8819,-6.885,-6.8878,-6.8981,-6.9021,-6.8538,-6.8536,-6.8535,-6.8534,0,-6.7812,-6.7931,-6.8047,-6.8138,-6.8206,-6.835,-6.8336,-6.841,-6.8376,-6.838,-6.8551,-6.8589,-6.8691,-6.8738,-6.8706,-6.8944,-6.8902,-6.8825,-6.8695,-6.8933,-6.9028,-6.9067,-6.8554,-6.855,-6.8546,-6.8544,0,0,-6.8188,-6.8258,-6.8301,-6.8342,-6.8406,-6.8497,-6.8637,-6.8737,-6.8802,-6.8867,-6.8985,-6.9136,-6.9065,-6.9119,-6.9091,-6.9194,-6.9429,-6.9104,-6.9105,-6.9165,-6.9697,-6.9756,-6.9802,-6.9388,-6.9396,-6.9401,-6.9692,0,-6.8468,-6.8712,-6.8684,-6.8917,-6.9028,-6.8946,-6.9069,-6.9121,-6.9129,-6.9224,-6.9231,-6.934,-6.9237,-6.9269,-6.9367,-6.938,-6.9536,-6.9358,-6.9499,-6.9504,-6.9488,-6.9851,-6.9914,-7.0186,-6.9729,-6.9735,-6.974,0,-6.8828,-6.8907,-6.9152,-6.92,-6.9246,-6.9356,-6.9446,-6.9538,-6.9596,-6.9594,-6.9655,-6.961,-6.9752,-6.9618,-6.9813,-6.9693,-6.9749,-6.9764,-6.9773,-6.9787,-6.9638,-6.9876,-7.0272,-7.0314,-6.9798,-6.9793,-6.9789,0,-6.9081,-6.9249,-6.9417,-6.9454,-6.9514,-6.9594,-6.9623,-6.9673,-6.9736,-6.9814,-6.9855,-6.9949,-7.0001,-7.0075,-7.0056,-6.996,-7.0257,-7.0121,-7.0261,-7.0262,-7.0328,-7.0325,-7.0741,-7.0362,-7.0361,-7.036,-7.0359,0,-6.9397,-6.9551,-6.9532,-6.9636,-6.9806,-6.9772,-6.9941,-6.9959,-7.0005,-7.0112,-7.0046,-7.0148,-7.0116,-7.0217,-7.0203,-7.0368,-7.0392,-7.0395,-7.039,-7.0402,-7.0402,-7.0439,-7.0421,-7.0371,-7.0369,-7.0366,-7.0365,0,-6.9709,-6.9702,-6.9881,-6.9924,-6.9938,-7.0062,-7.0098,-7.0196,-7.0198,-7.0334,-7.0364,-7.0368,-7.0483,-7.0472,-7.06,-7.0591,-7.0796,-7.0768,-7.0777,-7.0772,-7.0913,-7.0901,-7.1369,-7.1429,-7.1009,-7.1013,-7.1017,0,-6.9912,-7.0029,-7.0084,-7.0151,-7.0186,-7.0294,-7.0358,-7.0329,-7.0398,-7.0475,-7.0564,-7.0673,-7.0759,-7.0946,-7.0961,-7.1059,-7.1034,-7.1191,-7.1048,-7.1057,-7.1039,-7.1033,-7.1045,-7.122,-7.1224,-7.1228,-7.1231,0,-7.0275,-7.0266,-7.0361,-7.0456,-7.0534,-7.0606,-7.0672,-7.0731,-7.0709,-7.079,-7.0907,-7.0974,-7.1105,-7.1215,-7.1309,-7.1338,-7.1283,-7.1276,-7.1314,-7.1329,-7.133,-7.1334,-7.0856,-7.1266,-7.1262,-7.126,-7.1258,-7.1257,-7.054,-7.064,-7.0696,-7.0804,-7.0851,-7.0914,-7.101,-7.1024,-7.1121,-7.1227,-7.1204,-7.1336,-7.1393,-7.1513,-7.1552,-7.1656,-7.1599,-7.1653,-7.1667,-7.1682,-7.1699,-7.1313,-7.1672,-7.1671,-7.167,-7.167,-7.1669,0,-7.0901,-7.0933,-7.1033,-7.1128,-7.1213,-7.1153,-7.1223,-7.1299,-7.1416,-7.1474,-7.156,-7.1696,-7.1802,-7.1826,-7.1928,-7.2006,-7.1984,-7.2034,-7.2029,-7.2037,-7.1743,-7.1701,-7.2051,-7.2051,-7.2051,-7.2051,-7.2051,-7.2051,-7.1099,-7.1266,-7.1265,-7.1455,-7.1486,-7.1615,-7.1661,-7.172,-7.1766,-7.192,-7.2009,-7.2023,-7.2068,-7.2173,-7.2269,-7.2273,-7.2314,-7.2376,-7.2371,-7.2096,-7.2058,-7.2021,-7.1982,-7.2385,-7.2385,-7.2656,-7.2658,-7.266]},{"header":{"parameterUnit":"m.s-1","parameterCategory":1,"la1":30.2991,"la2":30.254,"lo1":-89.0895,"lo2":-89.0444,"dy":0.0017,"dx":0.0017,"nx":28,"ny":28,"refTime":"2023-11-14T03:00:00:Z","depth":0,"parameterNumber":3,"parameterNumberName":"V-component_of_WINDS"},"data":[0,0,0,0,0,0,0,0,0,0,0,0,0,0,0,0,0,0,0,0,0,0,0,0,0,0,0,0,0,0,0,0,0,0,0,0,0,0,0,0,0,0,0,0,0,0,0,0,0,0,0,0,0,0,0,0,0,0,-3.582,-3.582,0,-3.5809,-3.5808,-3.5808,-3.574,-3.5739,-3.5737,-3.5735,-3.5725,-3.5726,-3.5727,0,0,0,0,0,0,0,0,0,0,0,0,0,-3.5782,-3.5783,-3.582,-3.582,-3.582,-3.5809,-3.5808,-3.5808,-3.5741,-3.5739,-3.5737,-3.5735,-3.5724,-3.5726,-3.5727,0,0,0,0,0,0,0,0,0,0,0,0,0,-3.5788,-3.5784,-3.582,-3.5785,-3.5781,-3.5809,-3.5808,-3.5808,-3.5741,-3.5739,-3.5736,-3.5734,-3.5724,-3.5725,-3.5727,-3.5788,0,0,-3.5733,-3.5734,0,0,0,0,0,0,0,0,-3.5787,-3.5789,-3.579,-3.5787,-3.5783,-3.5773,-3.5791,-3.5802,-3.5742,-3.5756,-3.5735,-3.5733,-3.5743,-3.5743,-3.5746,-3.5788,-3.5787,-3.5733,-3.5734,-3.5735,-3.5736,0,0,0,0,0,0,0,-3.5787,-3.5789,-3.5815,-3.579,-3.5786,-3.5769,-3.5767,-3.5793,-3.5764,-3.5755,-3.575,-3.5749,-3.5741,-3.5745,-3.5746,-3.5787,-3.5733,-3.5735,-3.5736,-3.5737,-3.5876,-3.5878,0,0,0,0,0,0,-3.5792,-3.5789,-3.5816,-3.5815,-3.5779,-3.5772,-3.5769,-3.5779,-3.5763,-3.5758,-3.5752,-3.5746,-3.5743,-3.5743,-3.5745,-3.5814,-3.5735,-3.5737,-3.5738,-3.5873,-3.5876,-3.5879,0,0,0,0,0,0,-3.5791,-3.5795,-3.5816,-3.5801,-3.5802,-3.5775,-3.5786,-3.578,-3.5784,-3.5761,-3.5755,-3.5761,-3.5741,-3.5742,-3.5777,-3.5812,-3.5738,-3.5739,-3.587,-3.5874,-3.5878,-3.5953,0,0,0,0,0,0,-3.579,-3.5795,-3.5818,-3.5802,-3.5803,-3.585,-3.5788,-3.5782,-3.5787,-3.578,-3.5768,-3.5764,-3.5739,-3.5775,-3.5779,-3.5814,-3.5741,-3.5867,-3.5872,-3.5876,-3.5947,-3.5959,-3.5969,0,0,0,0,0,-3.5789,-3.584,-3.582,-3.5823,-3.5832,-3.5852,-3.5852,-3.5823,-3.5791,-3.5813,-3.5798,-3.5764,-3.5808,-3.5779,-3.5783,-3.5819,-3.5865,-3.587,-3.5876,-3.5942,-3.5957,-3.5969,0,0,0,0,0,0,-3.5862,-3.5838,-3.5814,-3.5862,-3.5859,-3.584,-3.5868,-3.5839,-3.5846,-3.5839,-3.5802,-3.58,-3.584,-3.5833,-3.5801,-3.5876,-3.583,-3.5837,-3.5879,-3.5893,-3.5903,-3.5904,-3.5742,0,0,0,0,0,-3.5884,-3.5902,-3.5879,-3.5923,-3.5923,-3.5896,-3.5904,-3.5881,-3.5877,-3.5876,-3.5863,-3.586,-3.5873,-3.5883,-3.5893,-3.5946,-3.5942,-3.5972,-3.5983,-3.5992,-3.5999,-3.6024,-3.6037,-3.5898,-3.5898,-3.5898,0,0,-3.5929,-3.5917,-3.5931,-3.5938,-3.5933,-3.5952,-3.5896,-3.5919,-3.5933,-3.5879,-3.5911,-3.5902,-3.5896,-3.594,-3.5959,-3.5935,-3.6036,-3.6,-3.6007,-3.6008,-3.6032,-3.6045,-3.6057,-3.5902,-3.5901,-3.5901,0,0,-3.602,-3.6014,-3.6049,-3.6045,-3.6038,-3.6019,-3.6028,-3.6013,-3.6004,-3.6036,-3.5995,-3.6011,-3.6035,-3.6032,-3.6034,-3.6122,-3.6091,-3.6127,-3.6184,-3.6209,-3.622,-3.623,-3.626,-3.6272,-3.6133,-3.6134,-3.6134,0,-3.6077,-3.6104,-3.6071,-3.6096,-3.61,-3.6051,-3.6086,-3.6084,-3.6081,-3.6085,-3.6058,-3.6086,-3.6079,-3.612,-3.6142,-3.6145,-3.6153,-3.6128,-3.6221,-3.6231,-3.6239,-3.6268,-3.628,-3.6138,-3.6137,-3.6137,-3.6136,0,-3.6174,-3.6193,-3.6222,-3.622,-3.6227,-3.6257,-3.6228,-3.6238,-3.6215,-3.6199,-3.623,-3.622,-3.6227,-3.6236,-3.6213,-3.6274,-3.6259,-3.6228,-3.6181,-3.6257,-3.6283,-3.6294,-3.6144,-3.6142,-3.6141,-3.614,0,0,-3.6312,-3.6289,-3.6301,-3.6298,-3.6286,-3.6301,-3.6328,-3.6334,-3.6344,-3.6343,-3.6365,-3.6385,-3.6355,-3.6357,-3.6334,-3.6357,-3.6426,-3.6322,-3.6321,-3.6341,-3.6491,-3.6514,-3.6528,-3.6405,-3.6407,-3.6409,-3.6491,0,-3.6399,-3.6444,-3.6414,-3.6464,-3.6481,-3.6434,-3.6457,-3.6453,-3.6438,-3.645,-3.6434,-3.6448,-3.6408,-3.6409,-3.6429,-3.6413,-3.6455,-3.6407,-3.6424,-3.6425,-3.6427,-3.6542,-3.6567,-3.6645,-3.6501,-3.6503,-3.6504,0,-3.6507,-3.6509,-3.6561,-3.6544,-3.655,-3.6572,-3.6574,-3.6586,-3.658,-3.6567,-3.6569,-3.6539,-3.6564,-3.6518,-3.6552,-3.6519,-3.6524,-3.6517,-3.652,-3.652,-3.6469,-3.6545,-3.667,-3.6682,-3.652,-3.6519,-3.6518,0,-3.6601,-3.6618,-3.665,-3.665,-3.6631,-3.6647,-3.664,-3.6631,-3.6636,-3.6638,-3.6641,-3.6647,-3.665,-3.6654,-3.6627,-3.6596,-3.6663,-3.6616,-3.6654,-3.6654,-3.667,-3.6669,-3.6797,-3.6674,-3.6674,-3.6674,-3.6674,0,-3.6701,-3.6734,-3.6692,-3.6713,-3.6748,-3.6712,-3.6748,-3.6736,-3.6728,-3.6744,-3.6705,-3.6721,-3.6683,-3.6696,-3.6674,-3.6705,-3.6707,-3.6697,-3.6691,-3.67,-3.6702,-3.6703,-3.6697,-3.6677,-3.6676,-3.6676,-3.6675,0,-3.6813,-3.6786,-3.6818,-3.6797,-3.6793,-3.682,-3.6801,-3.6819,-3.6801,-3.6822,-3.6825,-3.6797,-3.681,-3.6782,-3.6791,-3.6777,-3.682,-3.6805,-3.6822,-3.6817,-3.6857,-3.6853,-3.699,-3.7006,-3.6873,-3.6875,-3.6876,0,-3.6878,-3.6902,-3.6883,-3.6891,-3.6886,-3.69,-3.6904,-3.687,-3.6876,-3.6869,-3.6887,-3.6896,-3.6901,-3.6923,-3.6904,-3.691,-3.6895,-3.6942,-3.6896,-3.6904,-3.6895,-3.6893,-3.6895,-3.6952,-3.6954,-3.6955,-3.6956,0,-3.6997,-3.6982,-3.699,-3.6993,-3.6999,-3.7,-3.6998,-3.7007,-3.697,-3.698,-3.6991,-3.6995,-3.7003,-3.7012,-3.7014,-3.7006,-3.6975,-3.6971,-3.698,-3.699,-3.6998,-3.6993,-3.6848,-3.6968,-3.6967,-3.6966,-3.6965,-3.6965,-3.7087,-3.7105,-3.7094,-3.7104,-3.7099,-3.7098,-3.7112,-3.7095,-3.7104,-3.7108,-3.7087,-3.7103,-3.7094,-3.7093,-3.7088,-3.71,-3.7079,-3.7092,-3.7095,-3.7099,-3.7105,-3.6996,-3.71,-3.71,-3.71,-3.7099,-3.7099,0,-3.7203,-3.7193,-3.7202,-3.72,-3.7207,-3.7176,-3.7172,-3.718,-3.7195,-3.7189,-3.7194,-3.7207,-3.7215,-3.7196,-3.7201,-3.7214,-3.72,-3.7216,-3.7215,-3.7213,-3.7124,-3.7116,-3.7228,-3.7228,-3.7228,-3.7228,-3.7228,-3.7228,-3.7264,-3.7293,-3.7277,-3.7303,-3.7292,-3.7307,-3.7307,-3.7305,-3.73,-3.7316,-3.7322,-3.7309,-3.7297,-3.7301,-3.7307,-3.7301,-3.7305,-3.7326,-3.7316,-3.7233,-3.722,-3.7208,-3.72,-3.7328,-3.7328,-3.7403,-3.7404,-3.7405]}]]